GFSGBSN_700_spd_132.txt.gz
Wind_Speed
18 17 16 15 14 13 12 11 10 9 8 8 8 8 8 9 9 9 8 8 8 6 5 4 4 5 7 7 7 1 4 10 12 15 17 18 14 10 3 5 1 2 2 4 6 4 4
17 17 17 16 15 14 13 11 11 10 9 9 8 7 7 7 7 8 8 8 8 7 6 5 4 5 7 8 5 4 1 9 11 15 17 18 12 6 3 10 11 6 5 9 4 4 1
14 14 13 13 13 13 12 11 10 9 9 9 8 8 8 9 9 8 7 7 7 6 6 5 3 4 7 8 4 3 3 8 12 15 18 18 15 7 4 1 7 9 7 7 2 4 8
12 12 12 12 13 13 12 12 12 11 10 10 9 9 9 9 9 8 7 7 7 6 5 3 1 2 6 4 9 3 5 7 11 16 21 21 21 12 9 9 9 16 11 11 3 7 3
12 13 13 13 13 13 13 12 12 12 12 11 10 10 10 10 9 8 6 4 4 3 3 3 4 4 5 6 7 4 11 13 12 15 19 25 22 18 11 10 11 17 13 15 6 1 5
15 15 15 15 15 15 14 14 13 13 12 12 11 11 10 10 9 6 4 3 3 2 2 2 3 1 9 9 12 2 13 10 5 3 12 18 17 19 17 14 12 9 14 16 11 5 5
19 20 20 20 20 20 19 18 17 15 15 13 12 11 11 10 8 5 4 4 6 8 6 8 4 6 0 2 14 6 13 14 13 10 6 9 12 21 23 17 9 9 11 18 13 8 6
21 20 20 20 21 21 22 22 21 20 18 17 15 13 12 11 8 6 5 5 8 11 10 12 10 10 9 9 9 3 9 8 18 13 7 8 11 13 24 15 15 15 16 16 10 8 5
21 20 19 19 20 21 22 22 22 22 22 21 19 16 12 11 9 5 3 9 5 9 14 7 5 6 9 5 6 7 4 0 12 9 8 10 7 3 12 11 14 16 7 20 7 11 4
22 21 20 21 23 23 23 23 23 23 23 23 21 19 16 12 10 7 11 13 10 10 10 2 10 10 10 9 7 11 10 4 10 8 4 10 6 9 12 19 14 16 4 1 11 19 15
22 22 23 24 24 24 25 25 24 23 22 21 22 21 18 12 11 9 12 13 11 5 3 4 8 8 5 12 3 5 1 14 13 12 8 15 13 8 17 13 5 6 5 3 14 15 6
24 24 25 26 25 26 26 26 25 25 24 22 21 22 19 19 12 17 15 12 10 5 8 11 12 10 13 8 15 6 6 15 16 14 11 15 12 7 11 14 10 9 5 3 7 5 4
26 26 26 27 28 28 29 26 25 25 25 24 23 23 20 19 12 17 18 14 9 9 8 13 19 13 11 14 13 17 6 10 17 11 13 11 12 10 9 12 15 12 5 1 3 1 8
26 26 26 27 26 26 25 25 25 25 25 24 22 24 22 15 19 19 20 21 13 9 12 10 18 12 11 15 17 18 7 5 13 13 6 5 10 19 13 15 8 12 14 9 5 4 9
25 24 26 27 27 26 26 25 24 23 23 23 22 21 17 13 22 22 23 26 21 20 1 6 7 25 19 14 17 26 15 11 10 14 11 5 9 19 20 12 17 8 11 13 16 15 10
26 27 27 27 27 26 25 23 22 21 21 24 22 11 6 11 18 22 26 32 31 28 11 5 3 3 18 11 21 29 17 12 17 17 16 7 2 10 16 9 8 14 13 2 5 2 2
28 28 28 28 27 25 24 22 21 18 17 19 14 2 3 1 10 18 29 34 35 31 20 15 14 17 11 18 23 27 19 13 14 16 18 11 9 6 17 15 14 14 13 11 11 3 5
27 27 26 25 24 23 21 20 18 15 14 15 8 4 5 6 5 11 16 22 28 31 23 26 29 19 16 15 9 29 20 12 18 22 15 12 12 5 7 8 5 12 15 14 15 9 6
25 26 25 23 21 20 19 17 16 15 12 10 5 11 8 9 11 11 13 17 18 16 15 19 23 19 11 18 4 20 19 15 15 13 10 12 4 3 9 11 5 9 5 6 8 13 12
24 24 23 20 18 17 17 15 14 13 11 10 4 9 19 14 17 17 20 20 22 17 21 15 20 19 13 11 7 14 20 18 14 9 13 10 6 11 11 6 5 10 11 9 9 6 7
22 21 18 16 16 17 15 13 13 13 11 10 7 10 15 14 18 14 14 13 14 17 16 12 19 15 13 14 11 11 14 14 11 6 5 3 6 19 20 15 8 10 13 12 12 14 11
21 19 17 16 14 15 14 13 12 11 10 11 10 13 14 21 19 21 17 16 13 17 12 14 12 16 17 15 13 18 17 12 12 10 7 6 4 7 13 7 5 13 15 14 18 5 6
19 18 16 14 13 14 15 14 14 13 11 11 13 12 14 13 14 17 17 24 19 23 17 12 11 15 15 13 13 18 17 15 14 13 9 5 6 6 2 4 7 8 7 7 4 5 6
20 19 18 16 16 16 16 14 15 16 14 14 14 13 15 18 16 15 16 16 29 25 20 18 11 14 15 11 12 19 15 19 16 10 9 11 12 10 7 11 2 5 10 12 10 8 12
20 20 19 18 16 16 16 16 15 15 15 16 15 15 16 19 15 12 14 17 31 32 22 18 10 8 17 8 13 24 19 20 23 18 17 15 13 11 11 10 8 11 11 11 16 17 20
21 20 19 18 16 16 16 15 14 15 14 15 15 17 17 19 12 12 15 14 13 32 28 20 13 7 8 9 17 14 9 19 14 14 14 11 12 15 10 5 5 10 14 10 14 18 17
21 20 19 19 18 16 15 15 14 15 15 14 16 18 19 21 12 14 20 22 17 17 31 21 14 11 12 15 11 12 10 14 14 23 15 11 16 16 12 10 8 10 10 13 8 11 12
20 19 18 17 16 15 14 15 15 16 16 15 18 20 21 22 14 16 17 20 17 16 24 17 19 6 10 16 6 5 9 16 13 18 19 16 14 10 10 8 6 10 8 11 12 15 21
19 18 16 16 16 16 15 16 16 16 16 15 17 20 22 22 13 16 14 20 17 16 18 24 16 8 2 21 12 3 4 17 17 15 15 13 15 10 11 8 5 5 12 14 15 19 21

GFSGBSN_700_spd_135.txt.gz
Wind_Speed
15 15 14 13 12 11 10 9 8 8 8 8 8 8 8 8 8 8 7 7 7 7 6 5 4 4 6 8 8 4 6 13 16 19 24 18 16 7 6 4 5 4 2 5 6 1 10
13 13 13 13 12 12 11 10 9 8 8 7 7 7 7 7 8 8 7 6 6 7 6 5 4 5 6 8 6 5 5 12 15 19 25 19 15 11 9 2 5 5 4 2 4 5 6
11 11 11 10 10 10 10 10 9 9 8 8 8 8 8 8 9 8 7 6 6 6 6 5 3 4 5 8 6 4 9 14 17 20 23 18 18 16 9 2 5 11 4 3 0 4 11
11 11 11 11 10 10 10 11 11 10 10 9 9 9 9 9 9 8 8 7 6 5 3 2 0 2 3 3 2 5 11 15 17 22 23 20 21 18 8 7 7 15 8 6 2 1 9
14 14 15 14 14 13 13 13 13 13 12 12 11 10 10 9 9 9 8 7 5 3 1 2 5 6 5 4 4 7 15 17 17 19 21 22 23 18 11 10 8 13 7 10 8 8 5
16 17 17 16 16 16 15 15 14 14 14 13 13 13 12 10 9 9 8 8 6 6 5 4 5 7 8 5 10 8 19 17 19 18 22 23 23 19 17 16 16 14 18 16 14 10 9
19 19 19 18 18 17 17 17 17 16 16 15 14 13 13 12 9 9 9 10 9 10 12 11 7 9 9 5 7 5 17 19 19 18 13 21 22 31 24 20 13 9 10 13 17 15 7
20 21 20 19 19 19 19 20 20 19 18 18 17 15 13 12 9 8 8 12 13 15 7 12 11 12 10 12 8 10 8 14 16 15 15 15 23 24 26 23 18 14 14 17 13 18 12
22 21 21 20 20 20 21 21 21 21 20 19 19 17 15 15 10 9 10 15 14 16 16 6 7 11 7 5 5 7 5 7 17 13 16 14 10 14 27 27 22 17 18 21 19 16 14
23 22 23 23 23 23 23 22 21 21 20 19 19 18 17 15 13 11 15 15 16 13 12 4 8 12 12 9 7 10 7 3 14 14 12 10 8 8 14 22 18 19 5 8 23 20 13
23 23 24 25 25 26 25 25 25 25 22 20 19 18 16 16 14 14 14 15 12 7 4 4 11 10 10 11 8 6 8 10 12 13 7 9 9 5 9 14 9 7 4 8 21 20 7
24 25 26 26 25 26 25 25 26 23 21 20 19 21 17 16 12 16 15 15 8 4 7 9 13 11 14 13 9 8 8 14 11 13 15 13 8 8 7 8 11 9 3 10 16 20 7
24 24 24 24 24 24 23 23 23 22 22 21 19 21 22 13 12 18 18 17 8 8 5 8 15 11 15 15 12 13 13 16 18 14 17 13 10 12 9 15 13 14 10 4 2 2 9
25 25 25 26 25 25 23 23 22 22 23 21 19 20 21 19 18 20 22 21 10 9 17 1 15 18 17 18 17 18 19 16 14 17 7 13 11 18 13 15 18 16 16 8 5 4 5
27 27 26 27 26 26 26 25 24 22 21 20 18 17 17 18 16 22 25 29 19 14 6 9 8 20 24 20 15 20 18 21 11 15 12 8 7 14 22 16 13 9 12 9 11 4 3
27 27 27 26 25 25 25 23 23 21 20 19 16 12 10 11 10 20 25 28 22 15 12 6 2 11 24 21 11 23 21 17 23 16 13 8 7 6 18 21 15 15 10 6 7 2 3
27 26 25 25 24 23 22 21 19 18 16 15 13 4 4 6 6 14 24 28 31 19 15 11 9 7 8 8 10 19 33 20 11 13 21 19 13 2 12 14 11 14 17 13 7 4 6
27 26 24 24 24 22 21 19 17 16 13 12 8 3 4 4 3 5 15 20 21 26 24 24 26 22 21 17 17 13 30 28 20 17 18 22 16 14 10 12 5 16 15 16 16 13 9
27 25 24 23 22 20 18 18 16 14 12 8 7 9 10 9 8 8 10 12 14 14 8 11 13 13 11 18 14 7 19 26 19 20 27 25 9 8 10 11 7 9 6 3 3 10 13
25 23 22 21 19 18 16 16 15 12 10 8 3 10 11 14 15 14 17 17 17 11 11 18 18 10 15 21 13 7 21 23 25 23 22 17 10 8 9 10 11 7 1 3 1 4 5
24 22 21 19 17 17 15 13 12 11 10 9 6 9 17 13 16 17 16 19 17 16 10 13 9 13 10 11 5 13 25 27 22 19 16 14 12 10 14 14 12 8 10 6 6 6 5
23 22 21 19 17 15 14 13 14 12 12 11 9 9 13 18 24 22 24 22 20 21 19 15 12 14 10 11 9 8 24 28 25 21 15 11 8 5 12 12 10 12 8 6 6 7 4
23 22 21 19 18 17 15 14 14 15 14 14 13 13 14 13 15 19 21 24 24 28 26 19 17 14 12 14 12 13 25 22 19 17 15 11 5 8 5 6 3 5 5 4 2 4 6
24 22 21 20 19 19 18 16 15 16 17 17 17 16 17 18 14 16 16 19 21 23 30 24 18 15 7 11 10 18 19 24 23 15 13 12 6 10 7 5 1 6 5 4 6 6 5
24 22 20 21 19 19 18 17 17 16 17 17 17 18 20 22 16 14 17 18 19 22 24 29 19 13 8 11 12 13 18 25 24 19 16 11 11 12 8 10 4 7 6 6 8 12 12
24 22 21 21 20 19 18 18 17 17 17 17 17 17 20 22 16 15 13 14 19 17 17 23 22 11 10 10 11 12 15 22 18 24 23 17 12 13 11 5 6 7 8 9 9 17 15
23 22 20 20 20 19 18 17 16 16 16 17 18 18 20 23 15 15 12 14 16 19 17 15 26 19 10 11 11 12 12 22 22 28 26 22 20 19 16 11 7 11 12 12 11 16 15
22 21 19 18 18 18 16 16 16 17 17 17 19 20 22 24 17 20 17 13 15 15 15 11 14 18 18 14 13 6 10 13 16 26 33 28 19 16 17 11 6 12 11 14 13 15 20
20 19 19 18 17 17 16 16 16 17 18 18 18 21 23 24 14 12 19 17 15 14 19 13 11 16 18 19 12 5 8 13 16 18 22 20 17 18 14 10 9 9 9 11 17 16 15

GFSGBSN_700_spd_138.txt.gz
Wind_Speed
13 13 13 13 12 11 10 10 10 9 9 9 9 9 9 9 9 9 8 7 6 5 3 3 2 3 5 8 7 6 11 15 19 22 19 16 16 11 5 2 0 1 2 4 8 8 10
12 12 12 12 11 11 11 10 10 10 10 9 9 8 8 8 9 9 8 7 6 5 3 3 2 3 6 9 10 6 6 15 19 22 22 18 15 13 6 1 2 3 2 6 3 6 5
13 13 12 12 12 12 11 11 11 11 11 10 10 9 9 9 9 9 9 8 7 6 4 2 1 3 7 8 7 6 7 16 21 21 22 18 17 13 10 6 4 6 6 6 2 2 5
14 13 13 13 12 12 12 11 11 11 11 11 11 11 10 10 10 11 10 8 8 7 4 2 2 4 6 8 6 5 11 16 20 23 24 22 20 15 7 7 4 7 7 7 4 2 6
16 16 15 15 15 15 14 14 14 13 13 12 12 11 11 10 11 11 10 9 7 6 4 2 3 5 8 7 5 9 14 18 20 22 23 24 21 18 12 8 5 10 6 9 8 6 7
18 18 17 17 17 17 17 17 17 16 15 14 13 13 12 10 10 10 10 10 9 7 6 4 5 6 9 7 6 15 18 20 20 22 23 24 23 21 17 16 12 12 14 10 10 14 10
20 20 19 19 18 18 17 17 18 19 19 18 17 16 15 12 10 11 12 11 10 10 10 10 7 9 13 9 7 18 19 19 22 25 26 25 25 28 19 17 13 8 9 10 13 12 15
21 21 21 20 20 19 20 20 19 19 19 19 18 17 17 15 12 12 15 14 13 12 9 9 12 11 14 13 10 19 20 20 20 21 23 23 31 29 23 18 17 16 13 15 13 10 10
22 22 21 21 21 21 22 22 22 21 20 20 19 16 15 15 12 13 16 15 15 15 16 8 11 9 12 12 12 12 16 15 18 20 18 20 10 26 26 26 22 21 18 17 19 17 11
22 23 23 24 24 24 24 24 23 22 22 22 21 20 15 14 12 13 15 14 14 13 13 5 8 13 13 14 14 14 10 6 15 17 14 16 15 11 16 24 23 23 16 19 15 12 11
22 23 24 24 24 24 23 23 23 22 21 20 19 19 16 12 11 15 14 13 13 8 5 3 11 12 12 14 15 14 12 12 10 16 18 9 9 7 9 21 22 23 15 12 10 13 14
21 22 24 24 23 22 21 22 22 21 20 19 19 20 18 14 11 14 14 13 9 4 8 6 13 14 16 15 14 12 13 15 11 13 15 15 10 7 8 12 17 13 8 10 9 15 5
24 25 27 28 28 27 25 23 22 21 20 19 19 21 20 16 13 14 15 15 8 8 4 6 11 14 19 16 16 13 14 18 21 14 19 15 14 10 7 10 18 16 15 5 2 1 6
27 29 30 30 29 29 27 25 24 23 23 19 18 18 20 18 14 15 18 21 13 6 12 4 12 16 16 19 18 18 17 19 20 17 8 14 8 16 11 14 13 18 16 9 5 4 5
27 28 29 29 28 27 25 24 23 22 21 19 16 16 16 15 12 15 21 28 11 7 6 11 10 14 19 18 19 17 22 22 19 23 17 12 12 16 14 15 14 14 18 15 8 6 2
28 29 29 28 27 25 24 23 21 18 18 17 14 12 12 11 9 12 22 31 17 10 11 7 5 6 12 19 15 22 16 12 21 17 25 8 5 7 19 20 17 13 14 8 6 4 3
27 28 29 28 26 25 24 22 19 16 15 15 11 8 8 8 5 10 21 26 26 11 15 8 7 4 8 4 15 20 16 24 9 17 22 22 9 1 10 14 21 15 14 5 8 5 7
28 28 28 26 25 24 22 19 17 15 14 12 9 7 6 5 4 9 15 19 21 26 23 21 20 19 18 16 15 13 24 21 10 16 23 23 8 10 8 9 11 13 12 17 15 7 7
27 27 26 24 23 23 20 18 16 15 12 8 7 7 9 10 7 8 9 10 9 12 13 16 20 14 9 11 9 10 14 24 22 22 23 26 17 11 6 6 8 8 10 14 15 15 12
26 25 24 22 21 21 20 18 16 14 11 8 4 6 12 11 13 12 14 14 14 11 11 15 18 18 19 20 19 12 10 14 20 23 24 24 20 19 15 15 17 14 11 8 8 9 10
26 24 24 23 21 20 19 17 15 13 12 11 7 7 11 9 15 15 15 15 15 16 14 12 11 16 14 15 18 20 18 15 26 25 27 22 19 15 11 10 11 13 12 11 8 6 7
27 25 24 23 22 20 18 17 17 15 14 13 12 11 11 14 17 21 20 20 21 22 21 18 17 16 12 15 12 8 16 19 29 30 29 25 16 15 9 10 14 14 14 13 14 12 9
27 26 24 23 22 20 19 18 18 17 16 16 16 15 15 14 13 14 16 20 22 24 25 22 23 22 21 15 17 15 16 24 24 25 27 24 19 14 10 14 11 9 13 10 11 11 11
27 26 24 23 23 21 20 19 18 18 18 17 18 19 19 19 16 14 14 17 19 20 24 20 21 24 19 14 17 26 19 27 25 30 26 23 18 13 12 13 3 8 13 11 8 10 12
27 26 24 23 22 21 21 19 18 18 18 18 18 18 19 22 19 14 17 16 17 20 21 21 18 22 24 17 11 26 14 21 33 29 28 22 21 12 10 14 4 7 13 13 10 13 11
28 26 24 23 21 21 20 20 18 18 18 17 18 18 19 21 17 13 14 15 18 17 17 15 12 17 18 15 8 12 5 13 23 29 31 26 20 16 18 5 6 2 12 10 8 15 13
28 25 23 21 20 20 20 18 18 17 16 16 18 18 19 22 17 15 16 13 11 16 18 14 11 9 17 14 14 22 30 13 14 30 35 31 23 18 20 7 6 10 8 11 11 13 6
26 24 21 20 19 19 19 18 17 16 17 16 18 19 21 24 19 18 21 22 15 10 14 11 9 5 13 14 10 8 17 26 15 30 40 35 24 23 18 11 7 12 12 13 10 11 11
23 21 20 19 18 18 18 18 17 17 17 16 16 19 21 25 19 19 18 15 18 15 18 15 10 3 5 9 8 14 9 12 14 28 36 26 30 28 21 19 10 6 8 11 10 12 10

GFSGBSN_700_spd_141.txt.gz
Wind_Speed
14 14 13 13 13 13 12 12 11 11 10 10 9 9 9 8 8 8 7 6 5 5 3 2 2 4 6 9 7 10 13 15 18 19 18 13 12 10 4 1 4 4 1 2 9 7 7
13 13 13 12 12 11 11 10 10 10 10 9 9 9 8 8 7 6 5 5 4 4 4 3 2 5 7 10 10 6 10 15 19 19 20 17 17 12 6 2 2 3 1 1 2 4 5
13 12 12 12 11 11 10 10 10 9 9 9 9 8 8 8 8 7 6 5 3 3 3 2 3 5 9 10 10 9 7 14 19 20 21 21 18 15 10 5 4 5 2 3 3 3 2
13 13 13 13 13 12 12 11 11 10 10 9 9 9 8 9 9 8 7 6 5 3 2 2 3 6 10 11 11 9 10 13 20 22 23 23 20 16 11 9 3 5 5 4 3 2 1
14 15 15 15 15 15 14 14 14 13 13 13 12 12 11 9 11 9 8 7 6 5 2 2 3 7 10 14 12 12 13 17 20 22 23 24 20 17 13 9 6 8 3 5 5 4 6
16 16 16 17 17 16 16 16 16 16 16 15 15 15 14 13 13 12 10 9 8 7 5 4 7 7 10 12 12 14 17 20 22 24 24 25 22 19 16 13 9 7 9 4 5 6 10
18 18 18 18 18 17 18 18 18 19 18 17 16 16 15 14 14 14 13 11 10 10 9 10 8 13 9 12 11 16 20 21 23 25 26 26 25 24 19 16 14 4 8 9 6 11 10
17 17 17 17 17 18 18 18 19 20 20 18 17 16 16 15 15 16 15 12 10 11 11 11 14 18 13 16 13 15 22 22 24 25 26 24 28 26 20 17 13 12 10 10 11 8 11
18 18 19 19 20 21 20 19 18 19 19 18 18 17 14 14 14 17 17 14 12 12 15 11 15 15 17 18 15 16 23 22 19 20 22 23 15 28 26 22 18 16 17 16 12 16 12
20 20 21 21 21 22 21 21 20 19 18 17 16 15 13 12 12 14 16 15 12 10 11 6 11 14 18 18 16 12 17 17 21 18 17 17 22 10 24 28 25 20 21 18 17 15 6
21 21 21 21 21 21 20 20 20 19 19 19 17 14 12 11 12 12 13 12 10 6 5 2 8 13 17 20 8 19 17 14 12 14 20 11 10 17 14 24 29 25 22 20 22 10 6
23 23 23 24 27 27 26 25 23 19 17 17 17 16 14 12 12 12 11 11 8 4 7 5 9 14 18 21 12 16 19 16 14 10 15 17 9 11 11 11 19 22 17 15 10 8 6
24 25 26 27 29 30 29 28 26 23 21 17 17 18 15 14 10 13 11 12 6 7 4 4 8 11 18 20 17 9 20 22 17 13 15 16 18 15 11 10 18 20 17 6 5 4 5
24 26 26 27 28 28 27 25 24 23 22 18 16 16 16 12 11 12 13 18 10 6 11 6 8 15 21 18 21 17 12 18 22 18 8 15 12 18 12 11 17 24 19 10 7 6 8
25 25 25 27 28 28 26 24 22 21 20 15 14 14 13 12 8 10 16 21 9 12 8 13 9 8 16 18 16 22 20 20 20 18 15 8 12 13 14 11 12 21 18 13 5 5 5
25 26 27 27 27 26 25 23 21 20 18 15 11 11 12 10 8 8 17 22 13 11 10 9 7 6 8 16 19 20 12 11 22 25 17 10 9 17 16 16 16 14 14 9 12 9 10
28 27 27 26 26 25 24 22 20 18 16 14 12 10 9 8 5 7 17 18 13 11 11 7 8 5 6 8 13 15 11 19 12 9 18 23 9 8 15 20 20 20 14 10 9 7 10
28 26 27 26 25 24 23 21 20 17 15 13 10 8 8 6 5 8 13 15 16 16 18 15 15 14 10 11 9 10 21 18 5 15 19 24 11 12 8 13 23 20 16 17 14 7 7
29 27 26 26 25 24 23 21 19 17 13 9 8 7 8 8 6 7 9 10 11 13 11 17 17 15 10 9 6 9 15 17 18 20 19 27 17 6 6 6 14 15 16 15 15 15 15
28 27 26 25 24 22 22 20 18 15 13 9 6 6 9 11 11 11 11 12 11 11 9 10 13 16 18 20 18 12 12 9 13 21 25 18 21 17 15 13 15 15 15 14 15 13 14
30 28 26 25 23 23 21 19 18 16 14 11 8 8 10 10 11 12 13 12 10 10 10 10 12 12 12 13 18 23 26 24 18 16 24 24 22 24 21 14 14 18 18 17 16 16 13
29 27 25 24 24 23 21 20 18 17 16 14 13 11 11 13 14 17 17 18 18 20 18 17 16 17 15 14 11 11 18 17 15 16 19 26 18 24 20 16 16 15 16 17 17 18 17
25 26 25 24 23 23 21 20 19 18 17 17 15 15 15 14 12 12 14 15 17 17 18 20 22 22 22 19 19 19 20 19 14 14 23 27 21 24 12 16 13 10 21 22 22 21 21
24 26 25 25 23 23 22 20 19 18 17 16 16 16 15 17 16 15 14 16 15 16 20 17 18 20 19 22 23 21 22 19 19 24 23 23 25 22 12 12 6 14 16 19 17 16 18
25 26 26 25 23 22 21 20 19 18 18 17 17 16 16 17 16 14 15 18 17 17 18 19 14 17 22 18 19 17 21 18 17 23 27 24 24 14 10 12 5 11 16 19 19 14 15
27 27 26 25 22 21 20 19 18 17 17 17 17 17 15 16 15 10 12 14 15 17 17 15 13 15 16 14 14 10 12 19 12 16 26 24 26 22 17 8 9 14 13 15 12 12 16
28 26 25 23 21 19 18 18 17 17 16 15 16 15 16 17 13 11 12 14 14 12 13 11 10 10 12 13 13 12 16 24 14 10 22 29 27 23 21 9 8 12 11 15 12 5 5
26 25 24 22 20 19 18 17 16 16 15 14 16 16 17 19 17 17 14 17 17 19 16 8 6 5 9 11 10 11 11 27 24 11 15 30 23 19 21 13 9 15 13 18 8 7 8
25 24 22 20 19 19 18 17 16 15 15 14 14 17 18 20 17 21 19 20 17 12 18 11 9 7 7 9 10 12 7 23 32 14 14 22 32 27 25 27 8 7 5 8 11 11 11

GFSGBSN_700_spd_147.txt.gz
Wind_Speed
10 10 10 9 9 8 8 7 7 6 6 5 5 4 4 4 4 5 5 4 4 4 4 4 5 6 7 8 6 4 10 12 15 16 15 11 9 7 4 4 3 1 1 1 3 3 2
9 9 9 9 9 8 8 8 7 7 7 6 6 6 5 5 5 5 5 6 6 5 5 4 5 7 8 6 16 8 8 11 14 16 18 13 10 9 6 5 5 3 2 2 2 5 4
10 10 9 9 9 9 9 9 9 9 9 9 9 8 8 7 6 6 6 6 6 6 5 5 5 7 10 10 12 10 7 11 15 17 13 13 13 11 5 4 6 3 7 6 5 3 3
10 10 10 10 10 10 10 10 10 11 11 11 11 11 11 10 9 8 7 7 6 7 6 5 5 8 7 15 12 12 9 10 16 20 15 15 16 10 10 7 5 6 12 6 10 7 2
12 12 13 13 13 13 13 13 13 13 14 14 14 14 13 13 12 11 9 8 8 8 8 6 5 6 8 11 12 12 11 11 14 18 22 17 18 13 10 10 14 8 10 6 7 7 2
12 12 12 12 13 13 13 14 14 15 15 15 16 17 16 14 13 13 11 10 9 9 10 8 7 5 11 9 11 11 10 11 13 15 17 19 14 15 15 16 10 8 9 7 3 9 4
12 13 13 13 13 13 14 14 15 15 15 15 16 17 18 16 14 12 12 11 9 12 14 9 7 8 3 10 12 11 11 11 13 15 15 17 18 21 19 16 14 8 5 5 4 2 3
13 13 13 13 13 13 14 15 15 16 16 15 15 15 16 15 14 12 10 10 12 15 16 14 19 15 12 10 8 12 12 15 16 17 16 14 22 18 16 14 16 11 11 10 8 5 5
14 14 14 14 14 14 15 16 15 15 15 15 14 15 15 14 13 11 10 11 11 12 17 13 17 20 21 15 13 15 17 16 14 17 18 22 8 18 17 18 15 16 16 9 7 4 10
14 14 15 15 15 15 17 18 17 16 15 14 13 13 13 13 12 8 9 8 6 6 8 12 10 15 22 17 18 14 19 18 15 17 18 19 19 14 19 19 19 19 15 11 7 8 13
15 15 15 16 16 17 18 19 19 18 16 13 10 11 13 11 11 9 9 6 2 0 6 8 7 10 15 24 2 22 18 20 17 15 18 18 17 21 20 20 20 21 14 14 12 14 14
17 17 18 18 18 19 20 20 21 20 18 15 13 10 11 12 10 9 7 4 2 3 7 4 8 9 16 22 12 13 18 20 16 16 17 19 10 17 23 19 17 20 18 16 15 18 20
20 20 20 20 20 21 20 20 20 20 19 18 15 11 8 10 11 9 7 5 4 12 1 6 6 9 17 19 20 15 19 23 22 17 19 18 23 17 15 20 19 19 23 20 17 16 14
21 22 22 22 21 21 21 20 20 19 18 18 16 12 8 7 9 7 8 7 12 5 9 5 5 9 16 17 22 16 19 22 22 19 16 16 19 25 18 22 20 20 28 23 18 10 11
24 25 24 23 22 21 21 20 20 18 17 16 15 12 9 6 7 7 11 14 10 11 9 8 9 12 16 21 17 19 21 21 21 21 22 14 15 15 20 19 22 18 27 30 30 13 13
26 28 27 25 24 23 22 21 20 19 17 15 13 11 10 6 5 7 11 19 10 14 9 8 12 11 15 20 24 20 23 18 20 22 19 18 17 14 16 20 20 24 18 26 30 20 12
29 30 30 29 27 24 22 20 19 19 16 14 11 6 10 6 5 9 13 11 14 18 13 10 13 15 14 16 21 25 21 21 15 21 19 19 16 16 20 24 21 20 19 22 28 21 11
31 31 31 31 29 26 23 20 19 17 16 13 7 2 16 7 4 7 12 14 17 13 12 12 11 12 14 12 16 17 21 20 17 16 17 21 18 21 25 20 22 23 20 19 20 17 16
33 31 29 29 26 25 23 21 19 17 14 11 7 7 15 8 4 11 13 13 13 11 14 14 16 14 16 17 14 18 21 14 7 17 13 16 23 23 24 21 20 25 23 24 25 20 20
32 31 28 28 25 24 23 21 20 18 16 11 6 4 7 8 11 11 11 14 13 11 13 13 14 15 18 19 18 16 18 18 10 13 20 15 20 23 23 23 21 27 29 25 26 22 21
32 30 26 26 26 21 21 20 18 17 15 11 5 5 11 4 5 11 13 12 12 14 12 11 11 14 15 17 21 25 23 20 15 18 18 20 22 23 28 16 19 21 24 28 28 22 18
32 30 25 24 24 21 20 19 18 15 14 12 8 9 10 13 15 15 15 15 15 16 16 16 14 14 11 16 16 16 18 27 24 13 15 20 25 26 30 26 20 18 20 24 24 20 22
33 29 26 24 22 20 22 19 17 15 14 12 16 12 14 10 12 13 13 15 16 15 18 16 18 16 16 16 17 18 18 19 19 18 16 15 21 26 31 26 23 24 22 22 19 18 20
31 29 28 25 23 20 22 20 18 16 14 14 15 14 10 12 13 16 14 16 16 15 16 14 12 13 15 16 18 22 26 27 27 27 22 18 16 21 29 25 21 25 24 22 20 17 16
30 28 21 19 20 22 21 19 18 16 15 14 13 14 14 11 12 16 15 16 17 19 21 20 18 17 15 16 19 20 22 26 31 31 29 24 21 17 25 17 25 22 15 19 15 16 17
26 22 18 19 22 21 21 19 18 16 15 14 13 13 13 12 3 11 12 13 13 14 15 17 16 13 13 15 16 22 24 24 26 27 29 27 24 19 17 24 19 27 19 15 14 18 16
23 20 20 21 21 21 19 17 16 15 14 14 13 13 13 14 13 13 10 13 10 11 13 9 12 11 13 14 19 22 23 23 24 26 25 29 27 34 35 24 33 10 16 10 11 4 10
18 20 21 22 22 21 19 17 16 15 14 14 13 13 15 16 16 17 18 20 14 13 10 7 10 12 11 17 19 20 19 23 23 25 30 31 29 31 41 36 23 7 17 15 8 6 7
20 21 22 22 20 18 17 16 16 15 14 13 13 14 15 17 13 14 17 16 14 16 18 15 14 7 6 8 9 11 14 16 19 26 27 26 34 32 33 36 15 19 12 14 8 8 7